This demonstration page uses our WeatherBlox Daily Observations layout. Learn more.

Left ArrowRight Arrow

31.31129, -92.44514

Hourly Observations for December 29, 2020

Temp ( °F °C ) Dew Point ( °F °C ) Humidity (%) Winds ( mph kmh ) Pressure ( in mb ) Visibility ( mi km ) Precip ( " mm )
12:53 am 00:53 Cloudy 53 11.7 52 11.1 96 96 Calm 30.29 1026 8 13 0.00 0.00
1:53 am 01:53 Cloudy 54 12.2 53 11.7 97 97 Calm 30.27 1025 10 16 0.00 0.00
2:53 am 02:53 Clear with Mist and Fog 52 11.1 51 10.6 97 97 Calm 30.27 1025 6 10 0.00 0.00
2:59 am 02:59 Clear with Mist and Fog 53 11.7 51 10.6 93 93 Calm 30.26 1025 2 3 0.00 0.00
3:11 am 03:11 Clear with Mist and Fog 52 11.1 51 10.6 97 97 Calm 30.26 1025 3 5 0.00 0.00
3:53 am 03:53 Clear with Mist and Fog 50 10 49 9.4 96 96 Calm 30.27 1025 4 6 0.00 0.00
3:59 am 03:59 Clear with Mist and Fog 50 10 49 9.4 96 96 Calm 30.25 1024 2 3 0.00 0.00
4:08 am 04:08 Clear with Fog 50 10 50 10 100 100 Calm 30.25 1024 1 1 0.00 0.00
4:16 am 04:16 Clear with Mist and Fog 51 10.6 50 10 96 96 Calm 30.25 1024 2 3 0.00 0.00
4:23 am 04:23 Clear with Mist and Fog 50 10 50 10 100 100 SE 3 6 30.25 1024 3 5 0.00 0.00
4:30 am 04:30 Clear with Mist and Fog 50 10 50 10 100 100 SE 5 7 30.25 1024 2 2 0.00 0.00
4:32 am 04:32 Mostly Cloudy with Mist and Fog 50 10 50 10 100 100 SE 5 7 30.25 1024 1 1 0.00 0.00
4:53 am 04:53 Mostly Cloudy with Fog 48 8.9 48 8.9 100 100 Calm 30.26 1025 0 0 0.00 0.00
5:12 am 05:12 Mostly Cloudy with Mist and Fog 49 9.4 49 9.4 100 100 Calm 30.25 1024 1 1 0.00 0.00
5:23 am 05:23 Partly Cloudy with Mist and Fog 48 8.9 48 8.9 100 100 Calm 30.25 1024 2 3 0.00 0.00
5:30 am 05:30 Mostly Clear with Mist and Fog 48 8.9 48 8.9 100 100 Calm 30.25 1024 5 8 0.00 0.00
5:38 am 05:38 Mostly Clear with Mist and Fog 48 8.9 48 8.9 100 100 Calm 30.25 1024 2 3 0.00 0.00
5:47 am 05:47 Mostly Clear with Mist and Fog 48 9 46 8 94 94 E 3 6 30.25 1024 3 5 0.00 0.00
5:53 am 05:53 Mostly Clear with Mist and Fog 48 8.9 48 8.9 100 100 E 3 6 30.26 1025 6 10 0.00 0.00
6:53 am 06:53 Clear 49 9.4 49 9.4 100 100 ESE 5 7 30.27 1025 10 16 0.00 0.00
7:08 am 07:08 Clear with Mist and Fog 48 8.9 48 8.9 100 100 ESE 5 7 30.26 1025 3 4 0.00 0.00
7:21 am 07:21 Sunny with Mist and Fog 47 8.3 47 8.3 100 100 E 3 6 30.26 1025 2 3 0.00 0.00
7:27 am 07:27 Sunny with Mist and Fog 48 8.9 48 8.9 100 100 E 3 6 30.26 1025 3 5 0.00 0.00
7:53 am 07:53 Sunny with Mist and Fog 50 10 50 10 100 100 ESE 6 9 30.27 1025 5 8 0.00 0.00
8:53 am 08:53 Sunny with Mist and Fog 55 12.8 52 11.1 90 90 ESE 10 17 30.27 1025 6 10 0.00 0.00
9:53 am 09:53 Sunny 59 15 52 11.1 78 78 SE 10 17 30.27 1025 10 16 0.00 0.00
10:53 am 10:53 Sunny 63 17.2 53 11.7 70 70 SE 12 19 30.25 1024 10 16 0.00 0.00
11:53 am 11:53 Sunny 66 18.9 53 11.7 63 63 ESE 13 20 30.20 1023 10 16 0.00 0.00
12:53 pm 12:53 Mostly Sunny 67 19.4 54 12.2 63 63 SSE 16 26 30.16 1021 10 16 0.00 0.00
1:53 pm 13:53 Mostly Sunny 69 20.6 54 12.2 59 59 SE 16 26 30.13 1020 10 16 0.00 0.00
2:53 pm 14:53 Partly Cloudy 68 20 53 11.7 59 59 S 17 28 30.12 1020 10 16 0.00 0.00
3:53 pm 15:53 Mostly Sunny 68 20 54 12.2 61 61 SSE 14 22 30.10 1019 10 16 0.00 0.00
4:53 pm 16:53 Sunny 66 18.9 54 12.2 65 65 SSE 10 17 30.08 1019 10 16 0.00 0.00
5:53 pm 17:53 Cloudy 62 16.7 55 12.8 78 78 SE 8 13 30.09 1019 10 16 0.00 0.00
6:53 pm 18:53 Cloudy 64 17.8 55 12.8 73 73 SE 13 20 30.09 1019 10 16 0.00 0.00
7:53 pm 19:53 Cloudy 63 17.2 55 12.8 76 76 SE 10 17 30.09 1019 10 16 0.00 0.00
8:53 pm 20:53 Partly Cloudy 59 15 54 12.2 83 83 SE 9 15 30.09 1019 10 16 0.00 0.00
9:53 pm 21:53 Cloudy 62 16.7 54 12.2 75 75 SE 16 26 30.08 1019 10 16 0.00 0.00
10:53 pm 22:53 Cloudy 61 16.1 55 12.8 81 81 SE 14 22 30.07 1018 10 16 0.00 0.00
11:53 pm 23:53 Cloudy 61 16.1 55 12.8 81 81 SE 14 22 30.07 1018 10 16 0.00 0.00

Powered by AerisWeather